TimeCST,TemperatureF,Dew PointF,Humidity,Sea Level PressureIn,VisibilityMPH,Wind Direction,Wind SpeedMPH,Gust SpeedMPH,PrecipitationIn,Events,Conditions,WindDirDegrees,DateUTC
12:53 AM,5.0,-2.9,70,30.30,10.0,NW,20.7,29.9,N/A,,Scattered Clouds,320,2013-01-20 06:53:00
1:04 AM,5.0,-2.2,72,30.26,9.0,NW,18.4,23.0,N/A,,Mostly Cloudy,310,2013-01-20 07:04:00
1:13 AM,5.0,-2.2,72,30.26,10.0,NW,19.6,-,N/A,,Mostly Cloudy,310,2013-01-20 07:13:00
1:53 AM,5.0,-4.0,66,30.32,10.0,NW,23.0,28.8,N/A,,Scattered Clouds,310,2013-01-20 07:53:00
2:53 AM,3.9,-2.9,73,30.35,10.0,NW,16.1,-,N/A,,Scattered Clouds,310,2013-01-20 08:53:00
3:04 AM,3.2,-2.2,78,30.30,8.0,NW,16.1,-,N/A,,Mostly Cloudy,320,2013-01-20 09:04:00
3:11 AM,3.2,-2.2,78,30.30,10.0,NW,20.7,26.5,N/A,,Scattered Clouds,310,2013-01-20 09:11:00
3:18 AM,3.2,-4.0,72,30.30,10.0,NW,18.4,26.5,N/A,,Mostly Cloudy,320,2013-01-20 09:18:00
3:28 AM,3.2,-4.0,72,30.30,10.0,NW,16.1,-,N/A,,Partly Cloudy,320,2013-01-20 09:28:00
3:53 AM,3.9,-4.0,70,30.35,10.0,NW,18.4,-,N/A,,Scattered Clouds,320,2013-01-20 09:53:00
4:53 AM,1.9,-5.1,72,30.35,10.0,NNW,18.4,-,N/A,,Clear,330,2013-01-20 10:53:00
5:53 AM,1.9,-5.1,72,30.36,10.0,NW,12.7,-,N/A,,Clear,310,2013-01-20 11:53:00
6:53 AM,1.9,-5.1,72,30.39,10.0,NW,10.4,-,N/A,,Partly Cloudy,320,2013-01-20 12:53:00
7:53 AM,1.9,-5.1,72,30.40,10.0,NW,12.7,-,N/A,,Scattered Clouds,310,2013-01-20 13:53:00
8:53 AM,3.9,-4.0,70,30.42,10.0,WNW,11.5,-,N/A,,Overcast,300,2013-01-20 14:53:00
9:53 AM,5.0,-2.9,70,30.45,2.0,WNW,12.7,-,0.00,Snow,Light Snow,290,2013-01-20 15:53:00
10:11 AM,5.0,-2.2,72,30.38,1.5,WNW,10.4,-,0.00,Snow,Light Snow,300,2013-01-20 16:11:00
10:24 AM,5.0,-2.2,72,30.38,2.0,WNW,11.5,-,0.00,Snow,Light Snow,300,2013-01-20 16:24:00
10:30 AM,6.8,-2.2,67,30.38,3.0,WNW,12.7,-,0.00,Snow,Light Snow,300,2013-01-20 16:30:00
10:46 AM,6.8,-0.4,72,30.37,2.5,NW,11.5,-,0.00,Snow,Light Snow,310,2013-01-20 16:46:00
10:53 AM,6.1,-0.9,73,30.44,2.5,WNW,10.4,-,0.00,Snow,Light Snow,290,2013-01-20 16:53:00
11:12 AM,6.8,-0.4,72,30.37,5.0,WNW,11.5,-,0.00,,Haze,300,2013-01-20 17:12:00
11:53 AM,8.1,-0.9,67,30.44,6.0,WNW,15.0,-,0.00,,Haze,290,2013-01-20 17:53:00
12:02 PM,8.6,-0.4,67,30.36,1.8,NW,12.7,-,0.00,Snow,Light Snow,310,2013-01-20 18:02:00
12:11 PM,8.6,1.4,73,30.36,2.0,WNW,16.1,-,0.00,Snow,Light Snow,300,2013-01-20 18:11:00
12:25 PM,8.6,1.4,73,30.35,4.0,WNW,11.5,-,0.00,,Haze,300,2013-01-20 18:25:00
12:43 PM,8.6,-0.4,67,30.35,9.0,NW,18.4,-,0.00,,Overcast,310,2013-01-20 18:43:00
12:53 PM,9.0,1.0,70,30.42,10.0,NW,15.0,-,0.00,,Mostly Cloudy,320,2013-01-20 18:53:00
1:53 PM,10.9,1.9,67,30.41,8.0,WNW,13.8,-,N/A,,Overcast,300,2013-01-20 19:53:00
2:24 PM,10.4,1.4,67,30.33,10.0,WNW,12.7,-,N/A,,Mostly Cloudy,300,2013-01-20 20:24:00
2:53 PM,12.0,1.0,61,30.40,10.0,WNW,17.3,-,N/A,,Mostly Cloudy,290,2013-01-20 20:53:00
3:03 PM,12.2,1.4,62,30.32,10.0,NW,16.1,-,N/A,,Overcast,310,2013-01-20 21:03:00
3:53 PM,10.9,1.0,64,30.38,10.0,NW,16.1,-,N/A,,Overcast,310,2013-01-20 21:53:00
4:30 PM,10.4,1.4,67,30.31,10.0,WNW,15.0,-,N/A,,Mostly Cloudy,290,2013-01-20 22:30:00
4:53 PM,9.0,-0.0,67,30.38,10.0,WNW,15.0,-,N/A,,Scattered Clouds,300,2013-01-20 22:53:00
5:19 PM,8.6,1.4,73,30.30,10.0,WNW,11.5,-,N/A,,Mostly Cloudy,290,2013-01-20 23:19:00
5:31 PM,8.6,-0.4,67,30.30,10.0,WNW,10.4,-,N/A,,Scattered Clouds,290,2013-01-20 23:31:00
5:53 PM,9.0,1.0,70,30.37,10.0,West,10.4,-,N/A,,Mostly Cloudy,280,2013-01-20 23:53:00
6:53 PM,10.9,1.9,67,30.36,10.0,West,15.0,-,N/A,,Overcast,280,2013-01-21 00:53:00
7:53 PM,10.9,3.0,70,30.35,7.0,WNW,18.4,-,0.00,,Overcast,290,2013-01-21 01:53:00
8:25 PM,10.4,3.2,73,30.27,2.5,NW,19.6,-,0.00,Snow,Light Snow,310,2013-01-21 02:25:00
8:41 PM,8.6,1.4,73,30.27,7.0,NW,17.3,-,0.00,,Overcast,320,2013-01-21 02:41:00
8:53 PM,9.0,1.0,70,30.34,10.0,NW,15.0,21.9,0.00,,Mostly Cloudy,310,2013-01-21 02:53:00
9:53 PM,6.1,-2.0,69,30.35,10.0,NW,17.3,-,N/A,,Mostly Cloudy,310,2013-01-21 03:53:00
10:53 PM,3.0,-5.1,69,30.35,10.0,WNW,13.8,-,N/A,,Clear,300,2013-01-21 04:53:00
11:53 PM,3.0,-5.1,69,30.34,10.0,NW,12.7,-,N/A,,Clear,310,2013-01-21 05:53:00